Weather History for Shaw AFB, SC

Change the Weather History Date:

Wednesday, October 30, 2013

  Actual Average Record
Temperature  
Mean Temperature 64 °F -  
Max Temperature 79 °F 70 °F 82 °F (1996)
Min Temperature 50 °F 47 °F 33 °F (2001)
Degree Days  
Heating Degree Days 1    
Growing Degree Days 14 (Base 50)    
Moisture  
Dew Point 54 °F    
Average Humidity 77    
Maximum Humidity 94    
Minimum Humidity 44    
Precipitation  
Precipitation 0.00 in - - ()
Sea Level Pressure  
Sea Level Pressure 30.24 in    
Wind  
Wind Speed 1 mph (South)    
Max Wind Speed 6 mph    
Max Gust Speed -    
Visibility 10 miles    
Events      
Averages and records for this station are not official NWS values.
T = Trace of Precipitation, MM = Missing Value Source: NWS Daily Summary

Daily Weather History Graph

Daily Weather History Graph

Search for Another Location

Airport:

Trip Planner

Search our weather history database for the weather conditions in past years. The results will help you decide how hot, cold, wet, or windy it might be!

Date:

Astronomy

Oct. 30, 2013 Rise Set
Actual Time 7:39 AM EDT 6:30 PM EDT
Civil Twilight 7:13 AM EDT 6:56 PM EDT
Nautical Twilight 6:44 AM EDT 7:26 PM EDT
Astronomical Twilight 6:15 AM EDT 7:55 PM EDT
Moon 3:37 AM EDT (10/30) 4:06 PM EDT (10/30)
Length of Visible Light 11h 42m
Length of Day
10h 51m
Waning Crescent, 17% of the Moon is Illuminated
Oct 30
Waning Crescent
Nov 3
New
Nov 10
First Quarter
Nov 17
Full
Nov 25
Last Quarter

Hourly Weather History & Observations

Time (EDT) Temp. Dew Point Humidity Pressure Visibility Wind Dir Wind Speed Gust Speed Precip Events Conditions
12:58 AM 55.0 °F 52.0 °F 89% 30.27 in 10.0 mi Calm Calm - N/A   Clear
1:58 AM 53.6 °F 51.6 °F 93% 30.25 in 10.0 mi Calm Calm - N/A   Clear
2:58 AM 52.9 °F 50.5 °F 92% 30.25 in 10.0 mi Calm Calm - N/A   Clear
3:28 AM 53.6 °F 51.8 °F 94% 30.25 in 7.0 mi East 1.2 mph - N/A   Clear
3:33 AM 53.6 °F 51.8 °F 94% 30.25 in 5.0 mi Calm Calm - N/A   Clear
3:43 AM 51.8 °F 50.0 °F 94% 30.25 in 10.0 mi Calm Calm - N/A   Clear
3:58 AM 52.5 °F 50.5 °F 93% 30.25 in 10.0 mi Calm Calm - N/A   Clear
4:58 AM 52.0 °F 49.8 °F 92% 30.25 in 10.0 mi ENE 2.3 mph - N/A   Clear
5:58 AM 52.2 °F 49.8 °F 92% 30.27 in 10.0 mi Calm Calm - N/A   Clear
6:58 AM 52.5 °F 50.9 °F 94% 30.28 in 10.0 mi Calm Calm - N/A   Clear
7:58 AM 50.9 °F 49.1 °F 94% 30.30 in 10.0 mi East 2.3 mph - N/A   Clear
8:55 AM 55.2 °F 52.5 °F 91% 30.31 in 10.0 mi Calm Calm - N/A   Clear
9:55 AM 63.9 °F 55.9 °F 75% 30.31 in 10.0 mi Calm Calm - N/A   Clear
10:55 AM 67.1 °F 54.5 °F 64% 30.30 in 10.0 mi SW 3.5 mph - N/A   Clear
11:55 AM 71.6 °F 55.6 °F 57% 30.29 in 10.0 mi West 4.6 mph - N/A   Clear
12:55 PM 74.8 °F 55.4 °F 51% 30.26 in 10.0 mi Variable 5.8 mph - N/A   Clear
1:58 PM 77.0 °F 55.2 °F 47% 30.22 in 10.0 mi Calm Calm - N/A   Clear
2:55 PM 77.4 °F 54.7 °F 45% 30.20 in 10.0 mi Variable 5.8 mph - N/A   Clear
3:58 PM 78.8 °F 55.2 °F 44% 30.17 in 10.0 mi Variable 1.2 mph - N/A   Clear
4:58 PM 77.9 °F 55.4 °F 46% 30.17 in 10.0 mi SW 4.6 mph - N/A   Clear
5:58 PM 76.1 °F 57.2 °F 52% 30.17 in 10.0 mi South 4.6 mph - N/A   Clear
6:58 PM 70.3 °F 57.7 °F 64% 30.19 in 10.0 mi SSW 4.6 mph - N/A   Clear
7:58 PM 66.9 °F 57.6 °F 72% 30.19 in 10.0 mi Calm Calm - N/A   Clear
8:58 PM 63.1 °F 56.5 °F 79% 30.20 in 10.0 mi Calm Calm - N/A   Clear
9:58 PM 62.1 °F 57.7 °F 86% 30.20 in 10.0 mi Calm Calm - N/A   Clear
10:58 PM 61.2 °F 57.7 °F 88% 30.20 in 10.0 mi SSW 2.3 mph - N/A   Clear
11:58 PM 59.0 °F 56.1 °F 90% 30.20 in 10.0 mi Calm Calm - N/A   Clear